| time (UTC) | temp F | wind direction | speed MPH | gust MPH | rain 1hr in | rain 24hr in | rain mn in | humidity % | barometer mb |
| 20260507180217 | 71 | 272 | 2.0 | 9.0 | 0.00 | 0.00 | 0.00 | 39 | 1014.7 |
| 20260507175712 | 71 | 209 | 4.0 | 5.0 | 0.00 | 0.00 | 0.00 | 40 | 1014.7 |
| 20260507175210 | 71 | 290 | 2.0 | 7.0 | 0.00 | 0.00 | 0.00 | 41 | 1014.8 |
| 20260507174707 | 71 | 212 | 3.0 | 5.0 | 0.00 | 0.00 | 0.00 | 38 | 1014.6 |
| 20260507174205 | 71 | 225 | 1.0 | 5.0 | 0.00 | 0.00 | 0.00 | 42 | 1014.9 |
| 20260507173702 | 71 | 34 | 1.0 | 4.0 | 0.00 | 0.00 | 0.00 | 41 | 1014.9 |
| 20260507173159 | 71 | 296 | 0.0 | 3.0 | 0.00 | 0.00 | 0.00 | 45 | 1014.9 |
| 20260507172656 | 70 | 244 | 4.0 | 6.0 | 0.00 | 0.00 | 0.00 | 42 | 1014.8 |
| 20260507172153 | 69 | 254 | 0.0 | 8.0 | 0.00 | 0.00 | 0.00 | 42 | 1014.9 |
| 20260507171652 | 69 | 209 | 2.0 | 8.0 | 0.00 | 0.00 | 0.00 | 44 | 1014.9 |
| 20260507171150 | 69 | 174 | 5.0 | 6.0 | 0.00 | 0.00 | 0.00 | 44 | 1015.1 |
| 20260507170647 | 69 | 216 | 1.0 | 5.0 | 0.00 | 0.00 | 0.00 | 46 | 1015.1 |
| 20260507170144 | 69 | 248 | 2.0 | 6.0 | 0.00 | 0.00 | 0.00 | 43 | 1015.1 |
| 20260507165639 | 68 | 189 | 1.0 | 7.0 | 0.00 | 0.00 | 0.00 | 47 | 1015.0 |
| 20260507165136 | 68 | 243 | 3.0 | 6.0 | 0.00 | 0.00 | 0.00 | 45 | 1014.9 |
| 20260507164632 | 68 | 250 | 1.0 | 6.0 | 0.00 | 0.00 | 0.00 | 46 | 1015.3 |
| 20260507164129 | 67 | 237 | 3.0 | 7.0 | 0.00 | 0.00 | 0.00 | 45 | 1015.0 |
| 20260507163626 | 67 | 210 | 5.0 | 7.0 | 0.00 | 0.00 | 0.00 | 49 | 1015.0 |
| 20260507163124 | 67 | 272 | 2.0 | 7.0 | 0.00 | 0.00 | 0.00 | 51 | 1014.8 |
| 20260507162620 | 67 | 197 | 2.0 | 5.0 | 0.00 | 0.00 | 0.00 | 53 | 1015.1 |
| 20260507162116 | 67 | 282 | 1.0 | 5.0 | 0.00 | 0.00 | 0.00 | 51 | 1015.2 |
| 20260507161613 | 67 | 183 | 3.0 | 4.0 | 0.00 | 0.00 | 0.00 | 51 | 1015.1 |
| 20260507161109 | 66 | 244 | 2.0 | 6.0 | 0.00 | 0.00 | 0.00 | 52 | 1014.8 |
| 20260507160605 | 66 | 10 | 2.0 | 7.0 | 0.00 | 0.00 | 0.00 | 54 | 1015.0 |
| 20260507155557 | 64 | 89 | 0.0 | 9.0 | 0.00 | 0.00 | 0.00 | 58 | 1015.2 |
| 20260507155055 | 65 | 69 | 2.0 | 5.0 | 0.00 | 0.00 | 0.00 | 56 | 1015.1 |
| 20260507154551 | 64 | 58 | 2.0 | 5.0 | 0.00 | 0.00 | 0.00 | 60 | 1015.3 |
| 20260507154048 | 64 | 33 | 2.0 | 3.0 | 0.00 | 0.00 | 0.00 | 57 | 1015.3 |
| 20260507153545 | 63 | 96 | 1.0 | 4.0 | 0.00 | 0.00 | 0.00 | 58 | 1015.2 |
| 20260507153041 | 64 | 291 | 2.0 | 6.0 | 0.00 | 0.00 | 0.00 | 59 | 1015.5 |
| 20260507152537 | 64 | 142 | 0.0 | 3.0 | 0.00 | 0.00 | 0.00 | 59 | 1015.0 |
| 20260507152034 | 63 | 199 | 4.0 | 5.0 | 0.00 | 0.00 | 0.00 | 57 | 1015.2 |
| 20260507151530 | 61 | 194 | 2.0 | 7.0 | 0.00 | 0.00 | 0.00 | 59 | 1015.0 |
| 20260507151027 | 62 | 92 | 4.0 | 6.0 | 0.00 | 0.00 | 0.00 | 62 | 1015.1 |
| 20260507150524 | 60 | 20 | 1.0 | 5.0 | 0.00 | 0.00 | 0.00 | 62 | 1015.1 |
| 20260507150021 | 60 | 33 | 4.0 | 8.0 | 0.00 | 0.00 | 0.00 | 66 | 1015.0 |
| 20260507145516 | 61 | 354 | 4.0 | 5.0 | 0.00 | 0.00 | 0.00 | 62 | 1014.9 |
| 20260507145014 | 60 | 98 | 2.0 | 10.0 | 0.00 | 0.00 | 0.00 | 63 | 1014.8 |
| 20260507144510 | 60 | 260 | 3.0 | 8.0 | 0.00 | 0.00 | 0.00 | 63 | 1014.8 |
| 20260507144008 | 60 | 31 | 2.0 | 3.0 | 0.00 | 0.00 | 0.00 | 62 | 1014.8 |
| 20260507143505 | 60 | 345 | 1.0 | 3.0 | 0.00 | 0.00 | 0.00 | 62 | 1014.8 |
| 20260507143002 | 61 | 218 | 0.0 | 4.0 | 0.00 | 0.00 | 0.00 | 60 | 1015.2 |
| 20260507142457 | 62 | 95 | 1.0 | 3.0 | 0.00 | 0.00 | 0.00 | 60 | 1014.8 |
| 20260507141954 | 62 | 292 | 2.0 | 5.0 | 0.00 | 0.00 | 0.00 | 60 | 1014.8 |
| 20260507141450 | 62 | 33 | 1.0 | 3.0 | 0.00 | 0.00 | 0.00 | 60 | 1014.6 |
| 20260507140947 | 60 | 306 | 1.0 | 5.0 | 0.00 | 0.00 | 0.00 | 61 | 1014.6 |
| 20260507140444 | 60 | 274 | 1.0 | 3.0 | 0.00 | 0.00 | 0.00 | 64 | 1014.3 |
| 20260507135942 | 59 | 315 | 2.0 | 9.0 | 0.00 | 0.00 | 0.00 | 63 | 1014.5 |
| 20260507135438 | 59 | 180 | 3.0 | 5.0 | 0.00 | 0.00 | 0.00 | 63 | 1014.5 |
| 20260507134935 | 59 | 329 | 0.0 | 13.0 | 0.00 | 0.00 | 0.00 | 63 | 1014.0 |
| 20260507134432 | 59 | 195 | 2.0 | 6.0 | 0.00 | 0.00 | 0.00 | 65 | 1014.3 |
| 20260507133928 | 58 | 157 | 2.0 | 7.0 | 0.00 | 0.00 | 0.00 | 68 | 1014.4 |
| 20260507133424 | 57 | 108 | 0.0 | 14.0 | 0.00 | 0.00 | 0.00 | 71 | 1014.1 |
| 20260507132923 | 58 | 111 | 0.0 | 9.0 | 0.00 | 0.00 | 0.00 | 69 | 1014.1 |
| 20260507132418 | 59 | 155 | 3.0 | 9.0 | 0.00 | 0.00 | 0.00 | 68 | 1014.0 |
| 20260507131915 | 59 | 166 | 2.0 | 3.0 | 0.00 | 0.00 | 0.00 | 67 | 1014.1 |
| 20260507131412 | 59 | 105 | 1.0 | 3.0 | 0.00 | 0.00 | 0.00 | 68 | 1014.0 |
| 20260507130909 | 59 | 88 | 2.0 | 3.0 | 0.00 | 0.00 | 0.00 | 68 | 1014.3 |
| 20260507130406 | 58 | 179 | 1.0 | 5.0 | 0.00 | 0.00 | 0.00 | 69 | 1014.1 |
| 20260507125905 | 58 | 219 | 1.0 | 3.0 | 0.00 | 0.00 | 0.00 | 70 | 1014.0 |
| 20260507125402 | 58 | 234 | 0.0 | 4.0 | 0.00 | 0.00 | 0.00 | 70 | 1013.7 |
| 20260507124900 | 58 | 229 | 2.0 | 4.0 | 0.00 | 0.00 | 0.00 | 69 | 1014.0 |
| 20260507124355 | 58 | 240 | 2.0 | 7.0 | 0.00 | 0.00 | 0.00 | 69 | 1014.0 |
| 20260507123854 | 57 | 43 | 1.0 | 5.0 | 0.00 | 0.00 | 0.00 | 70 | 1013.7 |
| 20260507123351 | 57 | 69 | 2.0 | 4.0 | 0.00 | 0.00 | 0.00 | 70 | 1013.7 |
| 20260507122847 | 57 | 114 | 1.0 | 4.0 | 0.00 | 0.00 | 0.00 | 70 | 1013.6 |
| 20260507122342 | 57 | 187 | 0.0 | 5.0 | 0.00 | 0.00 | 0.00 | 71 | 1013.4 |
| 20260507121839 | 57 | 157 | 0.0 | 4.0 | 0.00 | 0.00 | 0.00 | 72 | 1013.7 |
| 20260507121335 | 57 | 300 | 1.0 | 3.0 | 0.00 | 0.00 | 0.00 | 72 | 1013.8 |
| 20260507120832 | 56 | 183 | 1.0 | 3.0 | 0.00 | 0.00 | 0.00 | 73 | 1013.5 |
| 20260507120328 | 56 | 195 | 3.0 | 4.0 | 0.00 | 0.00 | 0.00 | 73 | 1013.5 |
| 20260507115824 | 57 | 137 | 0.0 | 5.0 | 0.00 | 0.00 | 0.00 | 72 | 1013.7 |
| 20260507115320 | 57 | 197 | 2.0 | 5.0 | 0.00 | 0.00 | 0.00 | 73 | 1013.7 |
| 20260507114816 | 56 | 125 | 2.0 | 5.0 | 0.00 | 0.00 | 0.00 | 73 | 1013.8 |
| 20260507114313 | 56 | 89 | 0.0 | 3.0 | 0.00 | 0.00 | 0.00 | 73 | 1013.8 |
| 20260507113811 | 57 | 226 | 2.0 | 3.0 | 0.00 | 0.00 | 0.00 | 72 | 1013.8 |
| 20260507113307 | 57 | 209 | 2.0 | 5.0 | 0.00 | 0.00 | 0.00 | 71 | 1013.8 |
| 20260507112805 | 57 | 249 | 5.0 | 7.0 | 0.00 | 0.00 | 0.00 | 71 | 1014.1 |
| 20260507112306 | 57 | 226 | 0.0 | 4.0 | 0.00 | 0.00 | 0.00 | 71 | 1014.0 |
| 20260507111800 | 57 | 60 | 1.0 | 3.0 | 0.00 | 0.00 | 0.00 | 72 | 1014.0 |
| 20260507111256 | 57 | 8 | 2.0 | 3.0 | 0.00 | 0.00 | 0.00 | 71 | 1014.1 |
| 20260507110752 | 57 | 339 | 0.0 | 2.0 | 0.00 | 0.00 | 0.00 | 71 | 1014.1 |
| 20260507110249 | 58 | 97 | 2.0 | 2.0 | 0.00 | 0.00 | 0.00 | 69 | 1014.0 |
| 20260507105746 | 58 | 164 | 1.0 | 4.0 | 0.00 | 0.00 | 0.00 | 68 | 1013.6 |
| 20260507105241 | 59 | 272 | 0.0 | 5.0 | 0.00 | 0.00 | 0.00 | 67 | 1013.7 |
| 20260507104739 | 59 | 220 | 3.0 | 8.0 | 0.00 | 0.00 | 0.00 | 66 | 1013.7 |
| 20260507104236 | 59 | 31 | 1.0 | 5.0 | 0.00 | 0.00 | 0.00 | 67 | 1013.6 |
| 20260507103731 | 59 | 269 | 4.0 | 9.0 | 0.00 | 0.00 | 0.00 | 66 | 1013.7 |
| 20260507103228 | 58 | 230 | 4.0 | 5.0 | 0.00 | 0.00 | 0.00 | 67 | 1013.7 |
| 20260507102725 | 58 | 221 | 3.0 | 4.0 | 0.00 | 0.00 | 0.00 | 68 | 1013.8 |
| 20260507102221 | 58 | 218 | 0.0 | 4.0 | 0.00 | 0.00 | 0.00 | 67 | 1014.1 |
| 20260507101717 | 59 | 175 | 0.0 | 8.0 | 0.00 | 0.00 | 0.00 | 66 | 1014.2 |
| 20260507101212 | 58 | 236 | 2.0 | 4.0 | 0.00 | 0.00 | 0.00 | 68 | 1014.1 |
| 20260507100710 | 59 | 228 | 2.0 | 5.0 | 0.00 | 0.00 | 0.00 | 67 | 1014.2 |
| 20260507100208 | 59 | 26 | 5.0 | 8.0 | 0.00 | 0.00 | 0.00 | 67 | 1014.1 |
| 20260507095706 | 59 | 311 | 2.0 | 3.0 | 0.00 | 0.00 | 0.00 | 67 | 1014.1 |
| 20260507095202 | 59 | 238 | 3.0 | 4.0 | 0.00 | 0.00 | 0.00 | 67 | 1013.8 |
| 20260507094659 | 59 | 254 | 2.0 | 8.0 | 0.00 | 0.00 | 0.00 | 65 | 1013.8 |
| 20260507094156 | 59 | 207 | 2.0 | 4.0 | 0.00 | 0.00 | 0.00 | 66 | 1014.0 |
| 20260507093653 | 59 | 239 | 3.0 | 7.0 | 0.00 | 0.00 | 0.00 | 67 | 1013.8 |
| 20260507093152 | 58 | 34 | 0.0 | 4.0 | 0.00 | 0.00 | 0.00 | 68 | 1014.0 |
| 20260507092649 | 59 | 142 | 0.0 | 4.0 | 0.00 | 0.00 | 0.00 | 66 | 1013.6 |
| 20260507092145 | 59 | 37 | 0.0 | 3.0 | 0.00 | 0.00 | 0.00 | 65 | 1014.0 |
| 20260507091641 | 59 | 84 | 0.0 | 3.0 | 0.00 | 0.00 | 0.00 | 65 | 1013.7 |
| 20260507091137 | 59 | 53 | 0.0 | 4.0 | 0.00 | 0.00 | 0.00 | 65 | 1013.8 |
| 20260507090633 | 60 | 282 | 3.0 | 7.0 | 0.00 | 0.00 | 0.00 | 62 | 1013.8 |
| 20260507090131 | 60 | 91 | 3.0 | 5.0 | 0.00 | 0.00 | 0.00 | 61 | 1013.7 |
| 20260507085627 | 60 | 110 | 3.0 | 4.0 | 0.00 | 0.00 | 0.00 | 60 | 1013.7 |
| 20260507085124 | 60 | 98 | 0.0 | 5.0 | 0.00 | 0.00 | 0.00 | 59 | 1013.6 |
| 20260507084621 | 60 | 29 | 3.0 | 6.0 | 0.00 | 0.00 | 0.00 | 58 | 1013.5 |
| 20260507084118 | 60 | 144 | 6.0 | 6.0 | 0.00 | 0.00 | 0.00 | 60 | 1013.6 |
| 20260507083614 | 60 | 99 | 6.0 | 11.0 | 0.00 | 0.00 | 0.00 | 60 | 1013.4 |
| 20260507083112 | 60 | 62 | 2.0 | 5.0 | 0.00 | 0.00 | 0.00 | 60 | 1013.5 |
| 20260507082607 | 60 | 85 | 4.0 | 9.0 | 0.00 | 0.00 | 0.00 | 60 | 1013.6 |
| 20260507082104 | 61 | 351 | 11.0 | 17.0 | 0.00 | 0.00 | 0.00 | 58 | 1013.3 |
| 20260507081600 | 61 | 321 | 10.0 | 11.0 | 0.00 | 0.00 | 0.00 | 58 | 1013.1 |
| 20260507081057 | 61 | 6 | 2.0 | 4.0 | 0.00 | 0.00 | 0.00 | 58 | 1013.1 |
| 20260507080553 | 60 | 329 | 5.0 | 10.0 | 0.00 | 0.00 | 0.00 | 58 | 1013.0 |
| 20260507080050 | 60 | 294 | 4.0 | 6.0 | 0.00 | 0.00 | 0.00 | 61 | 1013.0 |
| 20260507075545 | 61 | 109 | 1.0 | 4.0 | 0.00 | 0.00 | 0.00 | 60 | 1013.1 |
| 20260507075041 | 61 | 51 | 1.0 | 7.0 | 0.00 | 0.00 | 0.00 | 57 | 1012.9 |
| 20260507074538 | 61 | 86 | 5.0 | 6.0 | 0.00 | 0.00 | 0.00 | 57 | 1012.9 |
| 20260507074037 | 61 | 48 | 2.0 | 7.0 | 0.00 | 0.00 | 0.00 | 58 | 1013.2 |
| 20260507073533 | 62 | 33 | 3.0 | 4.0 | 0.00 | 0.00 | 0.00 | 57 | 1012.8 |
| 20260507073029 | 63 | 302 | 0.0 | 6.0 | 0.00 | 0.00 | 0.00 | 54 | 1012.8 |
| 20260507072527 | 63 | 185 | 4.0 | 15.0 | 0.00 | 0.00 | 0.00 | 53 | 1012.7 |
| 20260507072024 | 64 | 222 | 2.0 | 10.0 | 0.00 | 0.00 | 0.00 | 53 | 1012.7 |
| 20260507071521 | 63 | 202 | 7.0 | 9.0 | 0.00 | 0.00 | 0.00 | 53 | 1012.4 |
| 20260507071017 | 64 | 207 | 7.0 | 9.0 | 0.00 | 0.00 | 0.00 | 52 | 1012.5 |
| 20260507070515 | 64 | 204 | 5.0 | 12.0 | 0.00 | 0.00 | 0.00 | 52 | 1012.5 |
| 20260507070013 | 64 | 208 | 5.0 | 9.0 | 0.00 | 0.00 | 0.00 | 51 | 1012.5 |
| 20260507065508 | 64 | 234 | 2.0 | 10.0 | 0.00 | 0.00 | 0.00 | 51 | 1012.5 |
| 20260507065005 | 64 | 199 | 5.0 | 7.0 | 0.00 | 0.00 | 0.00 | 52 | 1012.8 |
| 20260507064503 | 64 | 170 | 2.0 | 7.0 | 0.00 | 0.00 | 0.00 | 52 | 1012.7 |
| 20260507064001 | 63 | 158 | 4.0 | 10.0 | 0.00 | 0.00 | 0.00 | 52 | 1012.7 |
| 20260507063458 | 63 | 180 | 4.0 | 7.0 | 0.00 | 0.00 | 0.00 | 52 | 1012.7 |
| 20260507062955 | 63 | 213 | 2.0 | 9.0 | 0.00 | 0.00 | 0.00 | 52 | 1012.5 |
| 20260507062452 | 63 | 173 | 3.0 | 7.0 | 0.00 | 0.00 | 0.00 | 52 | 1012.7 |
| 20260507061949 | 64 | 121 | 3.0 | 9.0 | 0.00 | 0.00 | 0.00 | 52 | 1012.6 |
| 20260507061447 | 64 | 225 | 2.0 | 5.0 | 0.00 | 0.00 | 0.00 | 51 | 1012.5 |
| 20260507060945 | 65 | 141 | 1.0 | 5.0 | 0.00 | 0.00 | 0.00 | 50 | 1012.6 |
| 20260507060442 | 65 | 201 | 3.0 | 7.0 | 0.00 | 0.00 | 0.00 | 49 | 1012.5 |
| 20260507055938 | 65 | 204 | 3.0 | 12.0 | 0.00 | 0.00 | 0.00 | 50 | 1012.3 |
| 20260507055434 | 66 | 214 | 4.0 | 8.0 | 0.00 | 0.00 | 0.00 | 49 | 1012.5 |
| 20260507054931 | 66 | 191 | 3.0 | 8.0 | 0.00 | 0.00 | 0.00 | 48 | 1012.3 |
| 20260507054427 | 66 | 208 | 3.0 | 11.0 | 0.00 | 0.00 | 0.00 | 48 | 1012.3 |
| 20260507053925 | 66 | 228 | 3.0 | 7.0 | 0.00 | 0.00 | 0.00 | 48 | 1012.4 |
| 20260507053422 | 66 | 247 | 3.0 | 8.0 | 0.00 | 0.00 | 0.00 | 48 | 1012.4 |
| 20260507052921 | 66 | 224 | 2.0 | 6.0 | 0.00 | 0.00 | 0.00 | 48 | 1012.4 |
| 20260507052418 | 66 | 257 | 5.0 | 7.0 | 0.00 | 0.00 | 0.00 | 48 | 1012.3 |
| 20260507051914 | 66 | 223 | 4.0 | 6.0 | 0.00 | 0.00 | 0.00 | 48 | 1012.5 |
| 20260507051412 | 66 | 210 | 4.0 | 9.0 | 0.00 | 0.00 | 0.00 | 48 | 1012.3 |
| 20260507050909 | 67 | 190 | 2.0 | 9.0 | 0.00 | 0.00 | 0.00 | 47 | 1012.1 |
| 20260507050405 | 67 | 222 | 4.0 | 8.0 | 0.00 | 0.00 | 0.00 | 47 | 1012.4 |
| 20260507045902 | 67 | 229 | 5.0 | 9.0 | 0.00 | 0.00 | 0.00 | 47 | 1012.3 |
| 20260507045359 | 68 | 251 | 3.0 | 7.0 | 0.00 | 0.00 | 0.00 | 46 | 1012.4 |
| 20260507044856 | 68 | 223 | 4.0 | 7.0 | 0.00 | 0.00 | 0.00 | 46 | 1012.5 |
| 20260507044353 | 68 | 212 | 5.0 | 10.0 | 0.00 | 0.00 | 0.00 | 46 | 1012.4 |
| 20260507043848 | 68 | 209 | 2.0 | 8.0 | 0.00 | 0.00 | 0.00 | 46 | 1012.4 |
| 20260507043345 | 68 | 186 | 3.0 | 9.0 | 0.00 | 0.00 | 0.00 | 46 | 1012.2 |
| 20260507042842 | 69 | 334 | 0.0 | 7.0 | 0.00 | 0.00 | 0.00 | 46 | 1012.5 |
| 20260507042337 | 69 | 190 | 2.0 | 7.0 | 0.00 | 0.00 | 0.00 | 46 | 1012.5 |
| 20260507041834 | 69 | 156 | 3.0 | 7.0 | 0.00 | 0.00 | 0.00 | 46 | 1012.3 |
| 20260507041331 | 69 | 204 | 5.0 | 7.0 | 0.00 | 0.00 | 0.00 | 46 | 1012.3 |
| 20260507040828 | 69 | 198 | 6.0 | 8.0 | 0.00 | 0.00 | 0.00 | 46 | 1012.3 |
| 20260507040324 | 70 | 253 | 3.0 | 12.0 | 0.00 | 0.00 | 0.00 | 46 | 1012.1 |
| 20260507035820 | 70 | 196 | 4.0 | 9.0 | 0.00 | 0.00 | 0.00 | 46 | 1011.9 |
| 20260507035315 | 70 | 217 | 5.0 | 8.0 | 0.00 | 0.00 | 0.00 | 46 | 1011.9 |
| 20260507034814 | 69 | 218 | 4.0 | 7.0 | 0.00 | 0.00 | 0.00 | 46 | 1011.8 |
| 20260507034310 | 70 | 222 | 4.0 | 6.0 | 0.00 | 0.00 | 0.00 | 47 | 1011.5 |
| 20260507033808 | 70 | 213 | 5.0 | 9.0 | 0.00 | 0.00 | 0.00 | 46 | 1011.5 |
| 20260507033306 | 71 | 229 | 4.0 | 10.0 | 0.00 | 0.00 | 0.00 | 46 | 1011.5 |
| 20260507032802 | 71 | 194 | 3.0 | 11.0 | 0.00 | 0.00 | 0.00 | 46 | 1011.2 |
| 20260507032258 | 71 | 203 | 5.0 | 9.0 | 0.00 | 0.00 | 0.00 | 44 | 1011.2 |
| 20260507031755 | 71 | 255 | 4.0 | 7.0 | 0.00 | 0.00 | 0.00 | 46 | 1011.1 |
| 20260507031252 | 72 | 267 | 1.0 | 9.0 | 0.00 | 0.00 | 0.00 | 44 | 1011.2 |
| 20260507030749 | 71 | 258 | 3.0 | 7.0 | 0.00 | 0.00 | 0.00 | 45 | 1011.0 |
| 20260507030247 | 72 | 197 | 2.0 | 6.0 | 0.00 | 0.00 | 0.00 | 44 | 1011.2 |
| 20260507025744 | 73 | 309 | 1.0 | 5.0 | 0.00 | 0.00 | 0.00 | 43 | 1011.2 |
| 20260507025240 | 73 | 301 | 3.0 | 8.0 | 0.00 | 0.00 | 0.00 | 43 | 1011.0 |
| 20260507024739 | 73 | 219 | 3.0 | 8.0 | 0.00 | 0.00 | 0.00 | 44 | 1010.5 |
| 20260507024235 | 73 | 39 | 5.0 | 6.0 | 0.00 | 0.00 | 0.00 | 44 | 1011.1 |
| 20260507023731 | 73 | 344 | 2.0 | 5.0 | 0.00 | 0.00 | 0.00 | 46 | 1011.3 |
| 20260507023228 | 73 | 0 | 3.0 | 13.0 | 0.00 | 0.00 | 0.00 | 44 | 1011.0 |
| 20260507022725 | 74 | 204 | 2.0 | 11.0 | 0.00 | 0.00 | 0.00 | 42 | 1010.1 |
| 20260507022221 | 74 | 218 | 3.0 | 11.0 | 0.00 | 0.00 | 0.00 | 41 | 1009.6 |
| 20260507021718 | 74 | 204 | 4.0 | 10.0 | 0.00 | 0.00 | 0.00 | 42 | 1009.7 |
| 20260507021213 | 74 | 214 | 5.0 | 9.0 | 0.00 | 0.00 | 0.00 | 42 | 1009.6 |
| 20260507020712 | 75 | 245 | 4.0 | 8.0 | 0.00 | 0.00 | 0.00 | 43 | 1009.7 |
| 20260507020207 | 75 | 233 | 4.0 | 10.0 | 0.00 | 0.00 | 0.00 | 42 | 1009.9 |
| 20260507015706 | 75 | 204 | 4.0 | 7.0 | 0.00 | 0.00 | 0.00 | 43 | 1009.9 |
| 20260507015203 | 75 | 207 | 5.0 | 7.0 | 0.00 | 0.00 | 0.00 | 42 | 1009.7 |
| 20260507014659 | 75 | 237 | 3.0 | 7.0 | 0.00 | 0.00 | 0.00 | 42 | 1010.1 |
| 20260507014155 | 76 | 231 | 5.0 | 7.0 | 0.00 | 0.00 | 0.00 | 42 | 1009.7 |
| 20260507013652 | 76 | 225 | 1.0 | 8.0 | 0.00 | 0.00 | 0.00 | 43 | 1009.9 |
| 20260507013149 | 76 | 231 | 3.0 | 7.0 | 0.00 | 0.00 | 0.00 | 42 | 1009.9 |
| 20260507012647 | 76 | 218 | 3.0 | 8.0 | 0.00 | 0.00 | 0.00 | 42 | 1009.5 |
| 20260507012142 | 76 | 237 | 2.0 | 7.0 | 0.00 | 0.00 | 0.00 | 41 | 1010.0 |
| 20260507011641 | 76 | 231 | 4.0 | 7.0 | 0.00 | 0.00 | 0.00 | 41 | 1009.9 |
| 20260507011136 | 77 | 214 | 3.0 | 7.0 | 0.00 | 0.00 | 0.00 | 44 | 1009.9 |
| 20260507010631 | 77 | 223 | 2.0 | 8.0 | 0.00 | 0.00 | 0.00 | 44 | 1009.9 |
| 20260507010128 | 77 | 256 | 3.0 | 6.0 | 0.00 | 0.00 | 0.00 | 44 | 1010.0 |
| 20260507005625 | 77 | 203 | 3.0 | 6.0 | 0.00 | 0.00 | 0.00 | 42 | 1009.9 |
| 20260507005121 | 77 | 244 | 2.0 | 7.0 | 0.00 | 0.00 | 0.00 | 44 | 1010.0 |
| 20260507004618 | 78 | 217 | 2.0 | 4.0 | 0.00 | 0.00 | 0.00 | 44 | 1010.0 |
| 20260507004116 | 78 | 211 | 0.0 | 5.0 | 0.00 | 0.00 | 0.00 | 43 | 1009.9 |
| 20260507003612 | 78 | 234 | 0.0 | 7.0 | 0.00 | 0.00 | 0.00 | 43 | 1010.2 |
| 20260507003107 | 78 | 205 | 3.0 | 7.0 | 0.00 | 0.00 | 0.00 | 42 | 1010.0 |
| 20260507002604 | 78 | 221 | 3.0 | 8.0 | 0.00 | 0.00 | 0.00 | 41 | 1010.1 |
| 20260507002059 | 78 | 240 | 4.0 | 6.0 | 0.00 | 0.00 | 0.00 | 43 | 1010.0 |
| 20260507001556 | 79 | 233 | 3.0 | 6.0 | 0.00 | 0.00 | 0.00 | 41 | 1009.7 |
| 20260507001053 | 79 | 233 | 3.0 | 6.0 | 0.00 | 0.00 | 0.00 | 43 | 1010.2 |
| 20260507000549 | 79 | 238 | 2.0 | 8.0 | 0.00 | 0.00 | 0.00 | 41 | 1010.2 |
| 20260507000045 | 79 | 234 | 3.0 | 7.0 | 0.00 | 0.00 | 0.00 | 41 | 1010.0 |
| 20260506235543 | 78 | 239 | 2.0 | 7.0 | 0.00 | 0.00 | 0.00 | 42 | 1009.9 |
| 20260506235038 | 80 | 240 | 3.0 | 5.0 | 0.00 | 0.00 | 0.00 | 44 | 1010.1 |
| 20260506234536 | 80 | 271 | 2.0 | 5.0 | 0.00 | 0.00 | 0.00 | 41 | 1010.1 |
| 20260506234033 | 82 | 242 | 3.0 | 6.0 | 0.00 | 0.00 | 0.00 | 41 | 1010.2 |
| 20260506233530 | 82 | 250 | 1.0 | 4.0 | 0.00 | 0.00 | 0.00 | 43 | 1010.2 |
| 20260506233027 | 82 | 300 | 3.0 | 4.0 | 0.00 | 0.00 | 0.00 | 41 | 1010.3 |
| 20260506232523 | 81 | 249 | 0.0 | 5.0 | 0.00 | 0.00 | 0.00 | 40 | 1010.4 |
| 20260506232018 | 81 | 333 | 1.0 | 5.0 | 0.00 | 0.00 | 0.00 | 40 | 1010.4 |
| 20260506231516 | 80 | 343 | 2.0 | 7.0 | 0.00 | 0.00 | 0.00 | 43 | 1010.4 |
| 20260506231014 | 79 | 261 | 3.0 | 8.0 | 0.00 | 0.00 | 0.00 | 43 | 1010.4 |
| 20260506230509 | 79 | 245 | 2.0 | 5.0 | 0.00 | 0.00 | 0.00 | 43 | 1010.3 |
| 20260506230008 | 81 | 279 | 2.0 | 6.0 | 0.00 | 0.00 | 0.00 | 42 | 1010.2 |
| 20260506225504 | 83 | 244 | 3.0 | 5.0 | 0.00 | 0.00 | 0.00 | 37 | 1010.5 |
| 20260506225000 | 83 | 271 | 3.0 | 6.0 | 0.00 | 0.00 | 0.00 | 36 | 1010.3 |
| 20260506224457 | 84 | 227 | 2.0 | 6.0 | 0.00 | 0.00 | 0.00 | 37 | 1010.4 |
| 20260506223954 | 84 | 230 | 2.0 | 6.0 | 0.00 | 0.00 | 0.00 | 36 | 1010.6 |
| 20260506223450 | 83 | 248 | 0.0 | 4.0 | 0.00 | 0.00 | 0.00 | 43 | 1010.6 |
| 20260506222947 | 81 | 224 | 2.0 | 4.0 | 0.00 | 0.00 | 0.00 | 41 | 1010.6 |
| 20260506222444 | 82 | 219 | 2.0 | 3.0 | 0.00 | 0.00 | 0.00 | 40 | 1010.6 |
| 20260506221940 | 82 | 255 | 2.0 | 3.0 | 0.00 | 0.00 | 0.00 | 40 | 1010.6 |
| 20260506221438 | 82 | 259 | 0.0 | 3.0 | 0.00 | 0.00 | 0.00 | 40 | 1010.7 |
| 20260506220935 | 82 | 219 | 2.0 | 5.0 | 0.00 | 0.00 | 0.00 | 37 | 1010.7 |
| 20260506220430 | 82 | 272 | 2.0 | 3.0 | 0.00 | 0.00 | 0.00 | 41 | 1011.0 |
| 20260506215927 | 82 | 284 | 1.0 | 7.0 | 0.00 | 0.00 | 0.00 | 39 | 1011.1 |
| 20260506215424 | 84 | 223 | 1.0 | 4.0 | 0.00 | 0.00 | 0.00 | 38 | 1010.7 |
| 20260506214919 | 83 | 244 | 4.0 | 6.0 | 0.00 | 0.00 | 0.00 | 33 | 1010.9 |
| 20260506214416 | 84 | 288 | 2.0 | 5.0 | 0.00 | 0.00 | 0.00 | 37 | 1011.0 |
| 20260506213914 | 84 | 252 | 3.0 | 7.0 | 0.00 | 0.00 | 0.00 | 35 | 1011.1 |
| 20260506213412 | 84 | 233 | 0.0 | 7.0 | 0.00 | 0.00 | 0.00 | 37 | 1011.0 |
| 20260506212909 | 83 | 311 | 4.0 | 7.0 | 0.00 | 0.00 | 0.00 | 40 | 1011.0 |
| 20260506212405 | 82 | 342 | 4.0 | 8.0 | 0.00 | 0.00 | 0.00 | 37 | 1011.3 |
| 20260506211859 | 82 | 317 | 6.0 | 12.0 | 0.00 | 0.00 | 0.00 | 37 | 1011.3 |
| 20260506211356 | 83 | 274 | 3.0 | 7.0 | 0.00 | 0.00 | 0.00 | 40 | 1011.1 |
| 20260506210853 | 83 | 289 | 2.0 | 6.0 | 0.00 | 0.00 | 0.00 | 34 | 1011.1 |
| 20260506210350 | 84 | 324 | 5.0 | 8.0 | 0.00 | 0.00 | 0.00 | 38 | 1011.2 |
| 20260506205847 | 84 | 278 | 3.0 | 4.0 | 0.00 | 0.00 | 0.00 | 32 | 1011.2 |
| 20260506205343 | 83 | 262 | 3.0 | 10.0 | 0.00 | 0.00 | 0.00 | 37 | 1011.1 |
| 20260506204840 | 84 | 322 | 2.0 | 10.0 | 0.00 | 0.00 | 0.00 | 37 | 1011.3 |
| 20260506204337 | 83 | 56 | 2.0 | 9.0 | 0.00 | 0.00 | 0.00 | 34 | 1011.2 |
| 20260506203835 | 84 | 249 | 1.0 | 4.0 | 0.00 | 0.00 | 0.00 | 38 | 1011.3 |
| 20260506203332 | 83 | 269 | 1.0 | 8.0 | 0.00 | 0.00 | 0.00 | 34 | 1011.3 |
| 20260506202829 | 83 | 256 | 4.0 | 7.0 | 0.00 | 0.00 | 0.00 | 35 | 1011.3 |
| 20260506202326 | 82 | 222 | 5.0 | 9.0 | 0.00 | 0.00 | 0.00 | 34 | 1011.4 |
| 20260506201822 | 82 | 196 | 9.0 | 9.0 | 0.00 | 0.00 | 0.00 | 37 | 1011.4 |
| 20260506201320 | 82 | 251 | 2.0 | 9.0 | 0.00 | 0.00 | 0.00 | 37 | 1011.3 |
| 20260506200816 | 81 | 254 | 3.0 | 6.0 | 0.00 | 0.00 | 0.00 | 38 | 1011.4 |
| 20260506200312 | 81 | 212 | 3.0 | 9.0 | 0.00 | 0.00 | 0.00 | 38 | 1011.5 |
| 20260506195809 | 81 | 222 | 4.0 | 9.0 | 0.00 | 0.00 | 0.00 | 36 | 1011.6 |
| 20260506195306 | 80 | 244 | 3.0 | 7.0 | 0.00 | 0.00 | 0.00 | 39 | 1011.5 |
| 20260506194803 | 81 | 234 | 3.0 | 8.0 | 0.00 | 0.00 | 0.00 | 39 | 1011.5 |
| 20260506194259 | 81 | 240 | 3.0 | 10.0 | 0.00 | 0.00 | 0.00 | 38 | 1011.5 |
| 20260506193757 | 81 | 218 | 4.0 | 10.0 | 0.00 | 0.00 | 0.00 | 39 | 1011.4 |
| 20260506193254 | 80 | 237 | 1.0 | 9.0 | 0.00 | 0.00 | 0.00 | 40 | 1011.4 |
| 20260506192750 | 79 | 172 | 3.0 | 9.0 | 0.00 | 0.00 | 0.00 | 44 | 1011.3 |
| 20260506192247 | 79 | 223 | 3.0 | 11.0 | 0.00 | 0.00 | 0.00 | 42 | 1011.3 |
| 20260506191743 | 79 | 207 | 5.0 | 10.0 | 0.00 | 0.00 | 0.00 | 43 | 1011.6 |
| 20260506191240 | 79 | 200 | 10.0 | 10.0 | 0.00 | 0.00 | 0.00 | 41 | 1011.6 |
| 20260506190737 | 78 | 194 | 2.0 | 13.0 | 0.00 | 0.00 | 0.00 | 45 | 1011.8 |
| 20260506190234 | 79 | 208 | 4.0 | 9.0 | 0.00 | 0.00 | 0.00 | 43 | 1011.9 |
| 20260506185731 | 78 | 217 | 6.0 | 12.0 | 0.00 | 0.00 | 0.00 | 41 | 1012.0 |
| 20260506185227 | 78 | 223 | 6.0 | 11.0 | 0.00 | 0.00 | 0.00 | 44 | 1011.8 |
| 20260506184725 | 78 | 241 | 3.0 | 11.0 | 0.00 | 0.00 | 0.00 | 43 | 1011.9 |
| 20260506184222 | 78 | 215 | 2.0 | 9.0 | 0.00 | 0.00 | 0.00 | 46 | 1012.1 |
| 20260506183719 | 77 | 221 | 4.0 | 11.0 | 0.00 | 0.00 | 0.00 | 45 | 1012.2 |
| 20260506183214 | 77 | 219 | 5.0 | 10.0 | 0.00 | 0.00 | 0.00 | 46 | 1012.3 |
| 20260506182712 | 77 | 224 | 9.0 | 10.0 | 0.00 | 0.00 | 0.00 | 45 | 1012.3 |
| 20260506182209 | 76 | 245 | 6.0 | 12.0 | 0.00 | 0.00 | 0.00 | 45 | 1012.2 |
| 20260506181707 | 77 | 218 | 5.0 | 10.0 | 0.00 | 0.00 | 0.00 | 46 | 1012.4 |
| 20260506181204 | 76 | 217 | 5.0 | 9.0 | 0.00 | 0.00 | 0.00 | 48 | 1012.4 |
| 20260506180701 | 76 | 193 | 6.0 | 10.0 | 0.00 | 0.00 | 0.00 | 48 | 1012.4 |